| time (UTC) | temp F | wind direction | speed MPH | gust MPH | rain 1hr in | rain 24hr in | rain mn in | humidity % | barometer mb |
| 20260503200251 | 96 | 313 | 2.0 | 5.0 | 0.00 | 0.00 | 0.00 | 18 | 1008.8 |
| 20260503195749 | 95 | 104 | 2.0 | 4.0 | 0.00 | 0.00 | 0.00 | 19 | 1008.8 |
| 20260503195246 | 94 | 358 | 1.0 | 4.0 | 0.00 | 0.00 | 0.00 | 20 | 1008.7 |
| 20260503194743 | 95 | 353 | 2.0 | 3.0 | 0.00 | 0.00 | 0.00 | 21 | 1009.0 |
| 20260503194239 | 95 | 132 | 2.0 | 3.0 | 0.00 | 0.00 | 0.00 | 20 | 1009.2 |
| 20260503193735 | 94 | 85 | 1.0 | 5.0 | 0.00 | 0.00 | 0.00 | 20 | 1009.2 |
| 20260503193231 | 94 | 227 | 1.0 | 2.0 | 0.00 | 0.00 | 0.00 | 21 | 1009.2 |
| 20260503192727 | 94 | 277 | 3.0 | 4.0 | 0.00 | 0.00 | 0.00 | 21 | 1009.2 |
| 20260503192222 | 93 | 126 | 0.0 | 3.0 | 0.00 | 0.00 | 0.00 | 23 | 1009.4 |
| 20260503191719 | 93 | 271 | 1.0 | 5.0 | 0.00 | 0.00 | 0.00 | 23 | 1009.4 |
| 20260503191217 | 93 | 342 | 0.0 | 2.0 | 0.00 | 0.00 | 0.00 | 23 | 1009.6 |
| 20260503190713 | 93 | 307 | 0.0 | 3.0 | 0.00 | 0.00 | 0.00 | 24 | 1009.6 |
| 20260503190210 | 93 | 53 | 0.0 | 3.0 | 0.00 | 0.00 | 0.00 | 24 | 1009.4 |
| 20260503185707 | 93 | 21 | 1.0 | 3.0 | 0.00 | 0.00 | 0.00 | 23 | 1009.9 |
| 20260503185202 | 93 | 326 | 2.0 | 3.0 | 0.00 | 0.00 | 0.00 | 24 | 1009.8 |
| 20260503184657 | 93 | 122 | 2.0 | 3.0 | 0.00 | 0.00 | 0.00 | 24 | 1009.8 |
| 20260503184154 | 93 | 0 | 0.0 | 2.0 | 0.00 | 0.00 | 0.00 | 25 | 1010.0 |
| 20260503183650 | 92 | 130 | 0.0 | 2.0 | 0.00 | 0.00 | 0.00 | 25 | 1010.2 |
| 20260503183148 | 92 | 243 | 2.0 | 3.0 | 0.00 | 0.00 | 0.00 | 25 | 1010.0 |
| 20260503182646 | 91 | 102 | 2.0 | 3.0 | 0.00 | 0.00 | 0.00 | 25 | 1010.1 |
| 20260503182144 | 90 | 20 | 0.0 | 4.0 | 0.00 | 0.00 | 0.00 | 25 | 1010.4 |
| 20260503181640 | 91 | 346 | 0.0 | 2.0 | 0.00 | 0.00 | 0.00 | 25 | 1010.4 |
| 20260503181137 | 89 | 98 | 0.0 | 4.0 | 0.00 | 0.00 | 0.00 | 26 | 1010.4 |
| 20260503180634 | 89 | 218 | 0.0 | 4.0 | 0.00 | 0.00 | 0.00 | 25 | 1010.7 |
| 20260503180132 | 90 | 78 | 2.0 | 3.0 | 0.00 | 0.00 | 0.00 | 26 | 1010.8 |
| 20260503175629 | 89 | 64 | 1.0 | 2.0 | 0.00 | 0.00 | 0.00 | 25 | 1010.6 |
| 20260503175126 | 89 | 259 | 1.0 | 3.0 | 0.00 | 0.00 | 0.00 | 25 | 1010.8 |
| 20260503174622 | 89 | 260 | 2.0 | 4.0 | 0.00 | 0.00 | 0.00 | 25 | 1010.6 |
| 20260503174120 | 89 | 271 | 3.0 | 3.0 | 0.00 | 0.00 | 0.00 | 25 | 1010.7 |
| 20260503173615 | 89 | 271 | 2.0 | 3.0 | 0.00 | 0.00 | 0.00 | 25 | 1010.8 |
| 20260503173111 | 89 | 232 | 2.0 | 3.0 | 0.00 | 0.00 | 0.00 | 25 | 1010.8 |
| 20260503172608 | 89 | 64 | 1.0 | 3.0 | 0.00 | 0.00 | 0.00 | 26 | 1010.9 |
| 20260503172106 | 88 | 313 | 0.0 | 3.0 | 0.00 | 0.00 | 0.00 | 26 | 1011.0 |
| 20260503171602 | 88 | 279 | 1.0 | 3.0 | 0.00 | 0.00 | 0.00 | 26 | 1011.0 |
| 20260503171100 | 88 | 287 | 1.0 | 3.0 | 0.00 | 0.00 | 0.00 | 26 | 1010.9 |
| 20260503170555 | 88 | 106 | 1.0 | 2.0 | 0.00 | 0.00 | 0.00 | 26 | 1010.8 |
| 20260503150948 | 82 | 282 | 1.0 | 5.0 | 0.00 | 0.00 | 0.00 | 31 | 1010.7 |
| 20260503150445 | 81 | 290 | 3.0 | 6.0 | 0.00 | 0.00 | 0.00 | 31 | 1010.8 |
| 20260503131338 | 80 | 274 | 2.0 | 4.0 | 0.00 | 0.00 | 0.00 | 32 | 1010.0 |
| 20260503130835 | 79 | 260 | 1.0 | 5.0 | 0.00 | 0.00 | 0.00 | 32 | 1010.1 |
| 20260503130333 | 80 | 286 | 1.0 | 4.0 | 0.00 | 0.00 | 0.00 | 32 | 1010.0 |
| 20260503110726 | 80 | 274 | 3.0 | 7.0 | 0.00 | 0.00 | 0.00 | 28 | 1009.6 |
| 20260503110224 | 80 | 257 | 3.0 | 5.0 | 0.00 | 0.00 | 0.00 | 28 | 1009.8 |
| 20260503100150 | 80 | 277 | 2.0 | 4.0 | 0.00 | 0.00 | 0.00 | 25 | 1009.9 |
| 20260503090109 | 80 | 269 | 3.0 | 3.0 | 0.00 | 0.00 | 0.00 | 24 | 1009.8 |
| 20260503081544 | 80 | 255 | 0.0 | 3.0 | 0.00 | 0.00 | 0.00 | 25 | 1010.0 |
| 20260503081042 | 79 | 249 | 0.0 | 2.0 | 0.00 | 0.00 | 0.00 | 25 | 1010.2 |
| 20260503080538 | 78 | 265 | 0.0 | 2.0 | 0.00 | 0.00 | 0.00 | 26 | 1010.3 |
| 20260503072512 | 78 | 284 | 0.0 | 1.0 | 0.00 | 0.00 | 0.00 | 26 | 1010.2 |
| 20260503072009 | 78 | 257 | 0.0 | 1.0 | 0.00 | 0.00 | 0.00 | 27 | 1010.4 |
| 20260503071506 | 77 | 284 | 0.0 | 2.0 | 0.00 | 0.00 | 0.00 | 27 | 1010.2 |
| 20260503071002 | 76 | 245 | 0.0 | 0.0 | 0.00 | 0.00 | 0.00 | 27 | 1010.3 |
| 20260503070459 | 77 | 284 | 0.0 | 0.0 | 0.00 | 0.00 | 0.00 | 27 | 1010.2 |
| 20260503054923 | 77 | 245 | 0.0 | 0.0 | 0.00 | 0.00 | 0.00 | 27 | 1009.6 |
| 20260503054419 | 77 | 245 | 0.0 | 0.0 | 0.00 | 0.00 | 0.00 | 26 | 1009.7 |
| 20260503053917 | 77 | 81 | 0.0 | 0.0 | 0.00 | 0.00 | 0.00 | 28 | 1009.8 |
| 20260503053415 | 77 | 244 | 0.0 | 0.0 | 0.00 | 0.00 | 0.00 | 27 | 1009.9 |
| 20260503052910 | 77 | 245 | 0.0 | 0.0 | 0.00 | 0.00 | 0.00 | 28 | 1009.6 |
| 20260503052408 | 77 | 299 | 0.0 | 0.0 | 0.00 | 0.00 | 0.00 | 27 | 1009.8 |
| 20260503051904 | 77 | 232 | 0.0 | 1.0 | 0.00 | 0.00 | 0.00 | 26 | 1009.7 |
| 20260503051400 | 77 | 134 | 0.0 | 0.0 | 0.00 | 0.00 | 0.00 | 26 | 1009.8 |
| 20260503050858 | 77 | 299 | 0.0 | 0.0 | 0.00 | 0.00 | 0.00 | 26 | 1009.5 |
| 20260503050354 | 78 | 65 | 0.0 | 0.0 | 0.00 | 0.00 | 0.00 | 27 | 1009.8 |
| 20260503045851 | 78 | 65 | 0.0 | 0.0 | 0.00 | 0.00 | 0.00 | 26 | 1009.7 |
| 20260503045349 | 78 | 104 | 0.0 | 0.0 | 0.00 | 0.00 | 0.00 | 26 | 1009.6 |
| 20260503044845 | 79 | 104 | 0.0 | 0.0 | 0.00 | 0.00 | 0.00 | 25 | 1009.8 |
| 20260503044342 | 80 | 104 | 0.0 | 0.0 | 0.00 | 0.00 | 0.00 | 25 | 1009.6 |
| 20260503043839 | 80 | 104 | 0.0 | 0.0 | 0.00 | 0.00 | 0.00 | 24 | 1009.7 |
| 20260503043336 | 80 | 104 | 0.0 | 1.0 | 0.00 | 0.00 | 0.00 | 25 | 1009.5 |
| 20260503042832 | 80 | 119 | 0.0 | 0.0 | 0.00 | 0.00 | 0.00 | 25 | 1009.3 |
| 20260503042329 | 79 | 113 | 0.0 | 1.0 | 0.00 | 0.00 | 0.00 | 25 | 1009.4 |
| 20260503041825 | 79 | 150 | 0.0 | 0.0 | 0.00 | 0.00 | 0.00 | 25 | 1009.2 |
| 20260503041323 | 79 | 150 | 0.0 | 0.0 | 0.00 | 0.00 | 0.00 | 24 | 1009.3 |
| 20260503040820 | 80 | 70 | 0.0 | 0.0 | 0.00 | 0.00 | 0.00 | 26 | 1009.2 |
| 20260503040318 | 80 | 132 | 0.0 | 0.0 | 0.00 | 0.00 | 0.00 | 23 | 1009.0 |
| 20260503035815 | 80 | 132 | 0.0 | 0.0 | 0.00 | 0.00 | 0.00 | 24 | 1009.1 |
| 20260503035312 | 80 | 132 | 0.0 | 0.0 | 0.00 | 0.00 | 0.00 | 24 | 1009.0 |
| 20260503034809 | 81 | 132 | 0.0 | 0.0 | 0.00 | 0.00 | 0.00 | 24 | 1008.9 |
| 20260503034306 | 81 | 132 | 0.0 | 0.0 | 0.00 | 0.00 | 0.00 | 23 | 1008.8 |
| 20260503033803 | 82 | 132 | 0.0 | 0.0 | 0.00 | 0.00 | 0.00 | 24 | 1008.7 |
| 20260503033300 | 82 | 132 | 0.0 | 0.0 | 0.00 | 0.00 | 0.00 | 22 | 1008.7 |
| 20260503032758 | 82 | 132 | 0.0 | 0.0 | 0.00 | 0.00 | 0.00 | 22 | 1008.9 |
| 20260503032257 | 83 | 132 | 0.0 | 0.0 | 0.00 | 0.00 | 0.00 | 22 | 1008.6 |
| 20260503031754 | 83 | 65 | 0.0 | 0.0 | 0.00 | 0.00 | 0.00 | 22 | 1008.5 |
| 20260503031252 | 84 | 65 | 0.0 | 0.0 | 0.00 | 0.00 | 0.00 | 23 | 1008.5 |
| 20260503030748 | 84 | 171 | 0.0 | 0.0 | 0.00 | 0.00 | 0.00 | 22 | 1008.5 |
| 20260503030244 | 84 | 59 | 0.0 | 0.0 | 0.00 | 0.00 | 0.00 | 22 | 1008.6 |
| 20260503025741 | 84 | 65 | 0.0 | 0.0 | 0.00 | 0.00 | 0.00 | 21 | 1008.6 |
| 20260503025239 | 85 | 132 | 0.0 | 0.0 | 0.00 | 0.00 | 0.00 | 20 | 1008.5 |
| 20260503024735 | 86 | 90 | 0.0 | 0.0 | 0.00 | 0.00 | 0.00 | 20 | 1008.6 |
| 20260503024233 | 86 | 90 | 0.0 | 0.0 | 0.00 | 0.00 | 0.00 | 20 | 1008.5 |
| 20260503023729 | 87 | 132 | 0.0 | 0.0 | 0.00 | 0.00 | 0.00 | 20 | 1008.5 |
| 20260503023226 | 87 | 77 | 0.0 | 1.0 | 0.00 | 0.00 | 0.00 | 19 | 1008.5 |
| 20260503022722 | 88 | 70 | 0.0 | 0.0 | 0.00 | 0.00 | 0.00 | 19 | 1008.3 |
| 20260503022217 | 88 | 318 | 0.0 | 2.0 | 0.00 | 0.00 | 0.00 | 19 | 1008.3 |
| 20260503021714 | 89 | 6 | 0.0 | 1.0 | 0.00 | 0.00 | 0.00 | 18 | 1008.5 |
| 20260503021210 | 89 | 298 | 0.0 | 0.0 | 0.00 | 0.00 | 0.00 | 18 | 1008.3 |
| 20260503020708 | 89 | 272 | 0.0 | 0.0 | 0.00 | 0.00 | 0.00 | 18 | 1008.3 |
| 20260503020205 | 89 | 65 | 0.0 | 1.0 | 0.00 | 0.00 | 0.00 | 18 | 1008.3 |
| 20260503015702 | 89 | 284 | 0.0 | 0.0 | 0.00 | 0.00 | 0.00 | 19 | 1008.3 |
| 20260503015159 | 90 | 284 | 0.0 | 3.0 | 0.00 | 0.00 | 0.00 | 18 | 1008.2 |
| 20260503014654 | 90 | 40 | 0.0 | 0.0 | 0.00 | 0.00 | 0.00 | 18 | 1008.5 |
| 20260503014152 | 90 | 77 | 0.0 | 0.0 | 0.00 | 0.00 | 0.00 | 18 | 1008.6 |
| 20260503013649 | 90 | 65 | 0.0 | 0.0 | 0.00 | 0.00 | 0.00 | 18 | 1008.6 |
| 20260503013147 | 91 | 301 | 0.0 | 1.0 | 0.00 | 0.00 | 0.00 | 18 | 1008.6 |
| 20260503012644 | 91 | 59 | 0.0 | 1.0 | 0.00 | 0.00 | 0.00 | 18 | 1008.7 |
| 20260503012141 | 92 | 322 | 0.0 | 2.0 | 0.00 | 0.00 | 0.00 | 18 | 1008.6 |
| 20260503011637 | 92 | 36 | 0.0 | 1.0 | 0.00 | 0.00 | 0.00 | 18 | 1008.8 |
| 20260503011135 | 92 | 278 | 1.0 | 2.0 | 0.00 | 0.00 | 0.00 | 18 | 1008.6 |
| 20260503010631 | 93 | 313 | 2.0 | 4.0 | 0.00 | 0.00 | 0.00 | 17 | 1008.5 |
| 20260503010128 | 93 | 73 | 0.0 | 2.0 | 0.00 | 0.00 | 0.00 | 17 | 1008.8 |
| 20260503005625 | 92 | 299 | 0.0 | 1.0 | 0.00 | 0.00 | 0.00 | 18 | 1008.6 |
| 20260503005122 | 93 | 90 | 0.0 | 1.0 | 0.00 | 0.00 | 0.00 | 17 | 1008.7 |
| 20260503004618 | 93 | 89 | 3.0 | 5.0 | 0.00 | 0.00 | 0.00 | 17 | 1008.8 |
| 20260503004117 | 93 | 1 | 0.0 | 1.0 | 0.00 | 0.00 | 0.00 | 17 | 1008.9 |
| 20260503003614 | 93 | 34 | 1.0 | 2.0 | 0.00 | 0.00 | 0.00 | 17 | 1008.9 |
| 20260503003110 | 93 | 349 | 0.0 | 0.0 | 0.00 | 0.00 | 0.00 | 17 | 1008.8 |
| 20260503002608 | 95 | 93 | 0.0 | 3.0 | 0.00 | 0.00 | 0.00 | 16 | 1008.8 |
| 20260503002104 | 94 | 135 | 0.0 | 2.0 | 0.00 | 0.00 | 0.00 | 17 | 1009.0 |
| 20260503001600 | 94 | 271 | 1.0 | 3.0 | 0.00 | 0.00 | 0.00 | 17 | 1008.7 |
| 20260503001058 | 94 | 75 | 0.0 | 2.0 | 0.00 | 0.00 | 0.00 | 17 | 1008.8 |
| 20260503000555 | 94 | 26 | 0.0 | 2.0 | 0.00 | 0.00 | 0.00 | 17 | 1008.9 |
| 20260503000052 | 94 | 260 | 3.0 | 4.0 | 0.00 | 0.00 | 0.00 | 16 | 1008.7 |
| 20260502235548 | 95 | 325 | 1.0 | 3.0 | 0.00 | 0.00 | 0.00 | 16 | 1008.8 |
| 20260502235047 | 96 | 191 | 1.0 | 2.0 | 0.00 | 0.00 | 0.00 | 16 | 1008.8 |
| 20260502234542 | 96 | 100 | 2.0 | 2.0 | 0.00 | 0.00 | 0.00 | 16 | 1008.9 |
| 20260502234040 | 96 | 115 | 1.0 | 2.0 | 0.00 | 0.00 | 0.00 | 17 | 1008.8 |
| 20260502233540 | 95 | 34 | 2.0 | 3.0 | 0.00 | 0.00 | 0.00 | 17 | 1008.6 |
| 20260502233038 | 96 | 104 | 0.0 | 2.0 | 0.00 | 0.00 | 0.00 | 16 | 1008.8 |
| 20260502232534 | 97 | 108 | 1.0 | 3.0 | 0.00 | 0.00 | 0.00 | 17 | 1008.9 |
| 20260502232031 | 95 | 84 | 1.0 | 3.0 | 0.00 | 0.00 | 0.00 | 17 | 1008.6 |
| 20260502231528 | 94 | 356 | 1.0 | 3.0 | 0.00 | 0.00 | 0.00 | 17 | 1008.9 |
| 20260502231026 | 95 | 305 | 0.0 | 2.0 | 0.00 | 0.00 | 0.00 | 17 | 1008.9 |
| 20260502230524 | 94 | 64 | 1.0 | 3.0 | 0.00 | 0.00 | 0.00 | 17 | 1009.0 |
| 20260502230022 | 94 | 304 | 1.0 | 2.0 | 0.00 | 0.00 | 0.00 | 17 | 1009.4 |
| 20260502225517 | 94 | 244 | 2.0 | 4.0 | 0.00 | 0.00 | 0.00 | 17 | 1009.0 |
| 20260502225014 | 95 | 221 | 2.0 | 3.0 | 0.00 | 0.00 | 0.00 | 17 | 1009.0 |
| 20260502224510 | 96 | 88 | 0.0 | 3.0 | 0.00 | 0.00 | 0.00 | 17 | 1009.4 |
| 20260502224008 | 93 | 295 | 1.0 | 2.0 | 0.00 | 0.00 | 0.00 | 17 | 1009.2 |
| 20260502223505 | 94 | 287 | 2.0 | 4.0 | 0.00 | 0.00 | 0.00 | 17 | 1009.4 |
| 20260502223004 | 94 | 136 | 0.0 | 2.0 | 0.00 | 0.00 | 0.00 | 17 | 1009.5 |
| 20260502222500 | 95 | 202 | 2.0 | 3.0 | 0.00 | 0.00 | 0.00 | 17 | 1009.4 |
| 20260502221956 | 94 | 240 | 0.0 | 3.0 | 0.00 | 0.00 | 0.00 | 17 | 1009.5 |
| 20260502221452 | 94 | 267 | 2.0 | 4.0 | 0.00 | 0.00 | 0.00 | 18 | 1009.6 |
| 20260502220950 | 94 | 81 | 0.0 | 2.0 | 0.00 | 0.00 | 0.00 | 17 | 1009.7 |
| 20260502220445 | 95 | 92 | 2.0 | 3.0 | 0.00 | 0.00 | 0.00 | 17 | 1009.7 |
| 20260502215942 | 93 | 88 | 3.0 | 3.0 | 0.00 | 0.00 | 0.00 | 17 | 1009.9 |
| 20260502215440 | 95 | 223 | 3.0 | 3.0 | 0.00 | 0.00 | 0.00 | 17 | 1010.1 |
| 20260502214936 | 95 | 81 | 0.0 | 1.0 | 0.00 | 0.00 | 0.00 | 17 | 1010.3 |
| 20260502214433 | 94 | 54 | 0.0 | 2.0 | 0.00 | 0.00 | 0.00 | 18 | 1010.4 |
| 20260502213930 | 94 | 216 | 1.0 | 4.0 | 0.00 | 0.00 | 0.00 | 18 | 1010.5 |
| 20260502213427 | 95 | 273 | 2.0 | 2.0 | 0.00 | 0.00 | 0.00 | 16 | 1010.4 |
| 20260502212926 | 94 | 103 | 3.0 | 3.0 | 0.00 | 0.00 | 0.00 | 17 | 1010.6 |
| 20260502212424 | 93 | 52 | 0.0 | 3.0 | 0.00 | 0.00 | 0.00 | 17 | 1010.5 |
| 20260502211921 | 93 | 300 | 4.0 | 6.0 | 0.00 | 0.00 | 0.00 | 17 | 1010.6 |
| 20260502211417 | 93 | 292 | 2.0 | 5.0 | 0.00 | 0.00 | 0.00 | 18 | 1010.9 |
| 20260502210914 | 93 | 85 | 2.0 | 3.0 | 0.00 | 0.00 | 0.00 | 17 | 1010.7 |
| 20260502210411 | 94 | 131 | 0.0 | 3.0 | 0.00 | 0.00 | 0.00 | 17 | 1010.6 |
| 20260502205908 | 94 | 50 | 1.0 | 2.0 | 0.00 | 0.00 | 0.00 | 18 | 1010.6 |
| 20260502205404 | 93 | 111 | 2.0 | 3.0 | 0.00 | 0.00 | 0.00 | 18 | 1010.9 |
| 20260502204902 | 93 | 78 | 0.0 | 2.0 | 0.00 | 0.00 | 0.00 | 19 | 1010.9 |
| 20260502204358 | 93 | 247 | 2.0 | 3.0 | 0.00 | 0.00 | 0.00 | 18 | 1011.2 |
| 20260502203856 | 92 | 53 | 0.0 | 4.0 | 0.00 | 0.00 | 0.00 | 18 | 1011.3 |
| 20260502203354 | 92 | 268 | 2.0 | 3.0 | 0.00 | 0.00 | 0.00 | 18 | 1011.2 |
| 20260502202849 | 92 | 180 | 0.0 | 4.0 | 0.00 | 0.00 | 0.00 | 18 | 1011.5 |
| 20260502202347 | 92 | 323 | 0.0 | 2.0 | 0.00 | 0.00 | 0.00 | 19 | 1011.4 |
| 20260502201844 | 91 | 227 | 2.0 | 3.0 | 0.00 | 0.00 | 0.00 | 19 | 1011.4 |
| 20260502201340 | 92 | 23 | 1.0 | 3.0 | 0.00 | 0.00 | 0.00 | 19 | 1011.6 |
| 20260502200837 | 91 | 224 | 1.0 | 3.0 | 0.00 | 0.00 | 0.00 | 19 | 1011.6 |